www.pogodaiklimat.ru

Погода и климат >> Архив погоды >> Германия >> Констанция


ПОГОДА в Констанции

  • Прогноз погоды в Констанции
  • Монитор погоды в Констанции

АРХИВ ПОГОДЫ в Констанции

Время (UTC), дата Ветер
(напр.,м/с)
 
Видим.   Явления Облачность Т
(С)
Тd
(С)
f
(%)
Тe
(С)
Тes
(С)
Комфортность P
(гПа)
Po
(гПа)
Тmin
(С)
Tmax
(С)
R
(мм)
R24
(мм)
S
(см)
19 18.08 З 2 50 км 9/0
[]
+25.9 +16.9 58 +30 +30 душно 1008.7 959.4
20 18.08 СЗ 1 70 км 10/0
[]
+24.8 +16.7 61 +28 +28 жарко 1009.6 960.0
21 18.08 СВ 1 70 км в посл. час дождь 10/0
[]
+23.5 +16.6 65 +27 +27 душно 1010.1 960.3 0.0
22 18.08 СЗ 6 16 км слаб. дождь {морось} 9/9 1110 м
[]
+19.3 +16.9 86 +21 +21 комфорт 1013.4 962.8
23 18.08 ЮЗ 1-2
{6}
45 км в посл. час дождь {морось} 10/10 1500 м
[]
+18.9 +17.4 91 +21 +21 комфорт 1015.5 964.7
00 19.08 ЮЗ 3 8000 м дождь {морось} 9/9 1000 м
[]
+18.0 +16.7 92 +18 +18 1016.3 965.3 7
01 19.08 ЮЗ 4 7000 м дождь 10/0 2000 м
[]
+17.6 +16.0 90 +17 +17 1016.6 965.5
02 19.08 ЮВ 2-3
{5}
12 км слаб. дождь 9/0
[]
+17.2 +16.4 95 +18 +18 1016.7 965.5
03 19.08 ЮВ 1 70 км в посл. час дождь {морось} 9/0
[]
+17.3 +16.2 93 +18 +18 1016.1 965.0 8
04 19.08 ЮВ 1 70 км 10/0
[]
+17.3 +16.4 94 +18 +18 1016.1 965.0
05 19.08 З 1 21 км слаб. дождь {морось} 10/10 1380 м
[]
+17.5 +16.6 94 +19 +19 1017.0 965.9
06 19.08 Ю 3 27 км слаб. дождь {морось} 9/9 1500 м
[]
+17.3 +16.2 93 +17 +17 1016.9 965.7 +17.1 +27.8 17
07 19.08 Ю 1 70 км в посл. час дождь {морось} 10/10 1050 м
[]
+18.5 +16.6 89 +20 +20 1016.6 965.7
08 19.08 В 1 70 км 10/0
[]
+18.9 +17.1 89 +21 +26 комфорт 1017.2 966.3
09 19.08 В 1 70 км {дождь, морось} 10/10 270 м
[]
+19.6 +17.2 86 +23 +23 комфорт 1017.0 966.2 0.3
10 19.08 З 2 70 км 10/10 660 м
[]
+20.9 +15.5 71 +25 +25 комфорт 1017.0 966.4
11 19.08 ЮЗ 2 70 км 10/10 1000 м
[]
+22.2 +16.4 70 +26 +26 душно 1016.8 966.5
12 19.08 СВ 2 70 км {дождь, морось} 10/10 870 м
[]
+21.1 +17.0 77 +25 +25 комфорт 1017.2 966.7
13 19.08 Ю 2 70 км 10/10 1110 м
[]
+23.0 +15.4 62 +27 +27 душно 1016.8 966.6
14 19.08 С 1 70 км 10/10 840 м
[]
+23.1 +16.0 64 +28 +28 душно 1016.8 966.6
15 19.08 СЗ 2 70 км 10/10 800 м
[]
+23.7 +15.9 62 +27 +27 жарко 1016.9 966.8
16 19.08 С 2 70 км 10/0 2000 м
[]
+23.0 +16.2 66 +28 +29 душно 1016.9 966.7
17 19.08 СЗ 3 8000 м слаб. дождь 10/10 1500 м
[]
+20.5 +16.6 78 +24 +24 комфорт 1018.0 967.3
18 19.08 СЗ 2 65 км в посл. час дождь {морось} 10/10 600 м
[]
+19.0 +16.4 85 +21 +21 комфорт 1018.6 967.6 +17.2 +24.0 0.7
19 19.08 З 2 18 км слаб. дождь {морось} 10/10 1080 м
[]
+18.3 +16.6 90 +19 +19 1019.0 967.9
20 19.08 З 2 70 км в посл. час дождь {морось} 10/10 1170 м
[]
+17.7 +16.3 92 +18 +18 1019.7 968.5
21 19.08 СЗ 2 7000 м слаб. дождь {морось} 10/10 120 м
[]
+17.5 +17.0 97 +18 +18 1020.1 968.8 3
22 19.08 З 1 5000 м слаб. дождь {морось} 10/10 1170 м
[]
+17.2 +16.4 95 +18 +18 1020.5 969.1
23 19.08 З 1 70 км в посл. час дождь {морось} 10/0
[]
+16.3 +15.2 93 +17 +17 1020.8 969.2
00 20.08 СЗ 2 70 км в посл. час дождь {морось} 10/10 200 м
[]
+16.2 +15.3 94 +16 +16 1021.1 969.5 2
01 20.08 СЗ 2 70 км в посл. час дождь 10/10 1200 м
[]
+16.1 +15.0 93 +16 +16 1020.8 969.2
02 20.08 СЗ 1 60 км в посл. час дождь 10/10 1080 м
[]
+16.1 +15.2 94 +17 +17 1020.3 968.7
03 20.08 З 1 40 км {дождь, дымка} 10/10 1020 м
[]
+16.2 +15.1 93 +17 +17 1020.5 968.9 0.0
04 20.08 З 1 40 км в посл. час дождь {морось} 10/10 210 м
[]
+16.2 +15.1 93 +17 +17 1020.1 968.6
05 20.08 СЗ 1 40 км 10/10 800 м
[]
+16.3 +15.2 93 +17 +17 1020.0 968.5
06 20.08 СЗ 2 30 км слаб. дождь {морось} 10/10 300 м
[]
+16.4 +15.4 94 +16 +16 1020.5 969.0 +16.0 +19.0 5
07 20.08 СВ 2 30 км слаб. морось {дождь} 10/10 600 м
[]
+16.7 +15.4 92 +17 +17 1020.5 969.0
08 20.08 С 2 19 км слаб. дождь {морось} 10/10 1080 м
[]
+16.5 +14.9 90 +17 +17 1020.9 969.4
09 20.08 С 2 14 км слаб. дождь {морось} 10/10 1080 м
[]
+16.3 +14.6 90 +16 +16 1021.4 969.8 1
10 20.08 СЗ 2 2400 м сильн. дождь 9/9 900 м
[]
+15.4 +14.6 95 +15 +16 1021.9 970.1
11 20.08 СЗ 2 17 км слаб. морось с дождем 9/9 270 м
[]
+15.9 +14.5 91 +16 +17 1021.9 970.2
12 20.08 З 2 23 км слаб. дождь {морось} 10/10 500 м
[]
+16.3 +14.3 88 +16 +16 1021.9 970.3 9
13 20.08 З 2 15 км слаб. дождь 10/10 750 м
[]
+16.3 +14.2 87 +16 +16 1022.3 970.6
14 20.08 СЗ 3 30 км слаб. морось {дождь} 9/9 570 м
[]
+15.9 +14.4 91 +15 +16 1023.2 971.4
15 20.08 СЗ 2 10 км слаб. дождь {морось} 9/9 1000 м
[]
+14.8 +13.5 92 +14 +15 1024.3 972.3 3
16 20.08 СЗ 2 11 км слаб. дождь 10/10 1080 м
[]
+14.6 +13.3 92 +14 +14 1024.8 972.7
17 20.08 СЗ 2 19 км слаб. дождь 9/9 500 м
[]
+14.6 +13.7 94 +14 +14 1025.1 973.0
18 20.08 СЗ 3 4900 м дождь {морось} 10/10 300 м
[]
+14.0 +13.2 95 +13 +13 1026.3 974.0 +14.0 +17.0 5
19 20.08 ЮЗ 1 13 км слаб. дождь 10/10 1500 м
[]
+13.7 +12.9 95 +14 +14 1027.7 975.3
20 20.08 З 1 13 км слаб. дождь 9/9 120 м
[]
+13.7 +13.0 96 +14 +14 1028.2 975.8
21 20.08 Ю 1 27 км слаб. дождь 10/0 2000 м
[]
+13.6 +13.0 96 +14 +14 1028.1 975.7 3
22 20.08 З 1 35 км слаб. дождь {морось} 10/10 500 м
[]
+13.5 +12.4 93 +14 +14 1028.0 975.5
23 20.08 СЗ 1 35 км слаб. дождь {морось} 9/9 360 м
[]
+13.5 +12.5 94 +14 +14 1028.3 975.8
00 21.08 В 1 60 км в посл. час дождь {морось} 9/9 300 м
[]
+13.5 +12.6 94 +14 +14 1028.0 975.5 0.3
01 21.08 СВ 1 40 км 8/8 600 м
[]
+12.8 +12.0 95 +13 +13 1028.0 975.4
02 21.08 С 2-3
{3}
11 км 3/3 1500 м
[]
+12.4 +12.0 97 +11 +11 1028.5 975.8
03 21.08 СВ 2 19 км 4/0
[]
+12.3 +11.7 96 +11 +11 1028.3 975.6
04 21.08 С 2-3
{3}
30 км 3/0
[]
+11.9 +11.2 95 +11 +11 1028.3 975.5
05 21.08 СВ 2-4
{4}
25 км ясно +11.8 +11.2 96 +11 +11 1028.5 975.7
06 21.08 С 2 40 км ясно +13.1 +11.6 91 +12 +14 1028.4 975.8 +11.8 +14.1 4
07 21.08 С 3-6
{6}
30 км ясно +14.2 +11.6 84 +13 +16 1028.2 975.8
08 21.08 СВ 3-6
{7}
45 км ясно +16.2 +12.1 77 +16 +22 1027.3 975.3
09 21.08 В 3 70 км 1/1 800 м
[]
+18.6 +12.5 68 +19 +27 1026.6 975.1
10 21.08 СВ 4 70 км 10/10 750 м
[]
+18.0 +11.9 68 +18 +18 1026.5 974.9
11 21.08 СВ 4 70 км 9/9 1020 м
[]
+19.1 +11.2 60 +20 +21 1026.0 974.6
12 21.08 СВ 5 70 км 9/9 1110 м
[]
+19.8 +11.1 57 +21 +22 комфорт 1025.6 974.3
13 21.08 В 4 70 км 9/9 1200 м
[]
+19.8 +10.7 56 +21 +22 комфорт 1025.5 974.2
14 21.08 В 4 70 км 9/9 1300 м
[]
+20.9 +11.4 55 +23 +24 комфорт 1025.0 973.9
15 21.08 СВ 5 70 км 9/9 1320 м
[]
+20.2 +11.0 55 +22 +22 комфорт 1024.6 973.4
16 21.08 СВ 5-10
{10}
70 км 10/10 1440 м
[]
+19.4 +11.1 59 +20 +20 1024.7 973.4
17 21.08 СВ 4-9
{9}
70 км 9/9 1440 м
[]
+18.8 +11.0 60 +19 +19 1024.7 973.3
18 21.08 СВ 4 70 км 10/10 1000 м
[]
+18.2 +11.2 64 +18 +18 1024.8 973.3 +13.0 +21.2
19 21.08 СВ 3 70 км 10/10 1470 м
[]
+17.3 +11.4 68 +17 +17 1025.0 973.3
20 21.08 СВ 4 70 км 10/10 1440 м
[]
+16.8 +11.3 70 +16 +16 1025.1 973.3
21 21.08 СВ 3 70 км 10/0
[]
+16.3 +11.5 73 +16 +16 1024.6 972.8
22 21.08 СВ 3 70 км 10/0
[]
+15.8 +11.9 78 +15 +15 1024.8 972.9
23 21.08 СВ 3 70 км 10/0
[]
+15.3 +12.0 81 +15 +15 1024.4 972.4
00 22.08 СВ 3 70 км ясно +15.1 +12.0 82 +14 +14 1024.2 972.2
01 22.08 СВ 2 65 км 8/0
[]
+14.8 +12.1 84 +14 +14 1023.9 971.9
02 22.08 СВ 2 70 км 10/0
[]
+14.6 +11.9 84 +14 +14 1023.8 971.7
03 22.08 СВ 2 55 км 10/10 600 м
[]
+14.3 +11.9 85 +14 +14 1023.8 971.7
04 22.08 С 2-4
{5}
50 км 10/10 570 м
[]
+14.6 +11.9 84 +14 +14 1023.8 971.7
05 22.08 СВ 3-5
{6}
40 км 10/10 500 м
[]
+14.1 +11.5 84 +13 +13 1024.2 972.0
06 22.08 С 2 35 км 9/9 300 м
[]
+14.2 +11.8 85 +14 +14 1024.5 972.3 +13.9 +18.2
07 22.08 С 2 35 км 10/10 300 м
[]
+14.5 +11.8 84 +14 +14 1024.6 972.5
08 22.08 С 3-5
{6}
50 км 10/10 500 м
[]
+15.0 +11.8 81 +14 +14 1024.9 972.8
09 22.08 С 2 65 км 10/10 500 м
[]
+15.8 +12.2 79 +16 +16 1024.8 972.9
10 22.08 С 2-4
{5}
70 км 10/10 500 м
[]
+16.8 +12.2 74 +17 +17 1024.8 973.1
11 22.08 С 2-4
{4}
70 км 10/10 540 м
[]
+17.5 +12.7 73 +18 +18 1024.7 973.1
12 22.08 СВ 2 70 км 10/10 600 м
[]
+18.3 +13.0 71 +19 +19 1024.6 973.1
13 22.08 В 2-4
{4}
60 км 9/9 800 м
[]
+20.7 +14.1 66 +24 +25 комфорт 1023.9 972.9
14 22.08 Ю 2-4
{6}
55 км 10/10 870 м
[]
+19.5 +13.1 66 +22 +22 комфорт 1024.0 972.8
15 22.08 ЮВ 2 60 км 10/10 900 м
[]
+19.9 +13.7 67 +22 +22 комфорт 1023.8 972.7
16 22.08 В 2-3
{3}
65 км 10/10 930 м
[]
+20.2 +13.7 66 +23 +23 комфорт 1023.8 972.7
17 22.08 ЮВ 2-4
{4}
65 км 1/1 1020 м
[]
+20.3 +14.1 68 +23 +24 комфорт 1023.8 972.7
18 22.08 В 3 50 км ясно +18.0 +12.9 72 +18 +18 1024.7 973.2 +14.2 +21.4
19 22.08 В 2-3
{5}
50 км ясно +16.8 +13.0 78 +17 +17 1025.3 973.6
20 22.08 В 2-4
{4}
45 км ясно +16.1 +13.3 83 +16 +16 1025.9 974.0
21 22.08 СВ 1-2
{5}
35 км ясно +15.1 +12.9 87 +16 +16 1026.0 973.9
22 22.08 С 2-3
{3}
20 км ясно +14.6 +13.4 93 +14 +14 1025.8 973.7
23 22.08 С 1-2
{3}
20 км ясно +14.3 +13.1 92 +15 +15 1025.8 973.6
00 23.08 З 1 15 км ясно +13.4 +12.5 94 +13 +13 1025.7 973.3
01 23.08 С 2-4
{4}
12 км ясно +13.5 +12.7 95 +13 +13 1025.3 973.0
02 23.08 С 1-2
{3}
13 км ясно +13.1 +12.1 94 +13 +13 1025.3 972.9
03 23.08 С 2-3
{4}
10 км ясно +12.7 +11.9 95 +12 +12 1025.2 972.7
04 23.08 С 2-2
{3}
11 км 3/3 720 м
[]
+12.4 +11.5 94 +11 +11 1025.1 972.6
05 23.08 С 2-3
{3}
12 км 10/10 700 м
[]
+13.6 +12.6 94 +13 +13 1025.4 973.1
06 23.08 С 1 28 км 10/10 600 м
[]
+14.6 +12.6 88 +15 +15 1025.2 973.1 +12.2 +18.0
07 23.08 СЗ 1-2
{2}
30 км 10/10 630 м
[]
+15.7 +13.4 86 +16 +16 1024.9 973.0
08 23.08 З 1-2
{2}
30 км 9/9 500 м
[]
+16.4 +13.7 84 +17 +18 1024.8 973.0
09 23.08 В 3 60 км 10/10 600 м
[]
+17.7 +13.1 74 +18 +18 1024.6 973.0
10 23.08 ЮВ 3-4
{6}
55 км 10/10 700 м
[]
+18.7 +13.3 71 +20 +20 1024.3 972.9
11 23.08 ЮВ 3-5
{5}
50 км 9/9 800 м
[]
+19.4 +13.5 69 +21 +22 комфорт 1023.8 972.6
12 23.08 ЮВ 3 45 км 9/9 900 м
[]
+21.0 +14.3 66 +24 +25 комфорт 1023.0 972.1
13 23.08 ЮВ 2-3
{5}
35 км 1/1 1000 м
[]
+22.3 +13.9 59 +25 +36 комфорт 1022.5 971.8
14 23.08 Ю 2-3
{4}
30 км 1/1 1050 м
[]
+22.4 +14.0 59 +26 +34 жарко 1021.8 971.2
15 23.08 Ю 2 50 км 4/4 1140 м
[]
+22.9 +14.1 58 +26 +30 жарко 1021.4 970.9
16 23.08 ЮВ 2-4
{4}
40 км 5/5 1200 м
[]
+23.9 +14.6 56 +27 +28 жарко 1021.1 970.8
17 23.08 ЮВ 2-3
{4}
50 км 3/3 1200 м
[]
+22.6 +14.7 61 +26 +27 жарко 1021.3 970.8
18 23.08 В 3 45 км 1/1 1000 м
[]
+20.9 +14.8 68 +24 +24 комфорт 1021.7 970.9 +14.6 +24.2
19 23.08 В 2-4
{5}
40 км 4/4 1140 м
[]
+19.8 +14.3 71 +22 +22 комфорт 1022.0 971.0
20 23.08 СВ 2-4
{7}
40 км 10/10 1020 м
[]
+20.2 +14.2 68 +23 +23 комфорт 1021.7 970.7
21 23.08 С 2 30 км 10/10 1020 м
[]
+19.1 +15.0 77 +21 +21 комфорт 1021.3 970.2
22 23.08 СВ 2-4
{5}
30 км 10/10 1050 м
[]
+19.6 +14.7 73 +22 +22 комфорт 1021.0 970.0
23 23.08 СВ 1-3
{3}
29 км 9/9 1020 м
[]
+18.7 +14.6 77 +21 +21 комфорт 1020.9 969.7
00 24.08 С 1 24 км ясно +17.0 +14.5 85 +18 +18 1020.9 969.4
01 24.08 С 2-2
{2}
21 км ясно +16.4 +14.5 89 +16 +16 1020.8 969.2
02 24.08 СЗ 1-1
{3}
17 км ясно +15.5 +14.1 91 +16 +16 1020.7 969.0
03 24.08 СЗ 2-3
{3}
14 км ясно +15.9 +14.8 93 +16 +16 1020.7 969.1
04 24.08 СЗ 2-2
{3}
12 км ясно +15.7 +14.6 93 +16 +16 1020.8 969.1
05 24.08 СЗ 2-2
{2}
9000 м 1/1 450 м
[]
+14.9 +14.2 96 +15 +15 1021.2 969.4
06 24.08 З 2 10 км 10/10 300 м
[]
+15.9 +14.7 93 +16 +16 1021.0 969.4 +14.7 +20.8
07 24.08 З 2-3
{3}
13 км 10/10 330 м
[]
+16.6 +14.7 89 +17 +17 1021.1 969.6
08 24.08 З 2-2
{3}
14 км 10/10 360 м
[]
+17.8 +15.2 85 +18 +18 1021.0 969.7
09 24.08 ЮЗ 1 20 км 10/10 330 м
[]
+18.3 +14.8 80 +20 +20 1021.1 969.9
10 24.08 Ю 1-2
{3}
19 км 10/10 420 м
[]
+19.0 +14.7 76 +21 +21 комфорт 1020.9 969.8
11 24.08 З 1-2
{3}
18 км 10/10 420 м
[]
+19.5 +15.2 76 +22 +22 комфорт 1020.6 969.6
12 24.08 СЗ 1 21 км 9/9 540 м
[]
+20.9 +15.3 70 +25 +27 комфорт 1020.0 969.3
13 24.08 В 1-2
{4}
30 км 5/5 600 м
[]
+22.5 +16.0 67 +27 +34 душно 1019.4 969.0
14 24.08 В 1-3
{3}
22 км ясно +23.3 +16.1 64 +28 +39 душно 1018.8 968.5
15 24.08 В 2-3
{4}
24 км ясно +23.9 +16.4 63 +27 +33 жарко 1018.3 968.2
16 24.08 В 2-3
{4}
24 км ясно +23.3 +16.5 66 +28 +31 душно 1018.0 967.8
17 24.08 ЮВ 2-3
{3}
23 км ясно +23.1 +16.4 66 +28 +29 душно 1018.2 967.9
18 24.08 В 1 21 км ясно +21.7 +16.2 71 +25 +25 комфорт 1018.5 968.0 +16.0 +24.4
19 24.08 ЮВ 1-1
{2}
18 км ясно +19.4 +16.0 81 +22 +22 комфорт 1018.8 967.9
20 24.08 штиль 0-1
{2}
13 км ясно +18.2 +16.1 88 +19 +19 1019.0 967.9
21 24.08 СВ 2-3
{3}
10 км ясно +17.6 +16.4 93 +18 +18 1019.1 967.9
22 24.08 З 1-1
{3}
10 км ясно +16.9 +15.9 94 +18 +18 1019.3 967.9
23 24.08 С 1-2
{2}
7000 м дымка ясно +16.7 +16.0 96 +18 +18 1019.1 967.7
00 25.08 СЗ 1 7000 м дымка ясно +16.0 +15.4 96 +17 +17 1019.0 967.5
01 25.08 С 1-2
{2}
6000 м дымка ясно +15.7 +15.2 97 +16 +16 1019.1 967.5
02 25.08 СЗ 1-1
{2}
300 м туман {дымка} 10/10 <50 м
[]
+15.2 +15.0 99 +16 +16 1019.4 967.7
03 25.08 З 1 100 м туман {дымка} 10/10 <50 м
[]
+14.7 +14.5 99 +15 +15 1019.7 967.9 0.0
04 25.08 СЗ 1-2
{2}
100 м туман 10/10 <50 м
[]
+14.6 +14.4 99 +15 +15 1019.8 968.0
05 25.08 С 1-2
{2}
200 м туман {дымка} 10/10 <50 м
[]
+14.8 +14.6 99 +15 +15 1020.0 968.2
06 25.08 С 1 200 м туман {дымка} 10/10 <50 м
[]
+15.7 +15.5 99 +16 +16 1019.9 968.3 +14.4 +21.7 0.1
07 25.08 штиль 0-1
{2}
300 м туман 10/10 <50 м
[]
+16.1 +15.8 98 +16 +16 1020.4 968.8
08 25.08 ЮЗ 1-2
{2}
900 м туман 10/10 30 м
[]
+16.3 +15.8 97 +17 +17 1020.5 969.0
09 25.08 В 1 1400 м в посл. час туман 10/10 30 м
[]
+16.8 +15.9 94 +18 +18 1020.5 969.1 0.0
10 25.08 С 1-2
{2}
8000 м 10/10 90 м
[]
+18.9 +16.5 86 +21 +21 комфорт 1019.8 968.8
11 25.08 В 1-2
{3}
15 км ясно +21.9 +17.0 74 +26 +42 душно 1018.9 968.4
12 25.08 ЮВ 2-3
{3}
22 км {морось, туман} ясно +23.9 +17.2 66 +28 +41 душно 1018.2 968.1
13 25.08 В 2-4
{4}
24 км ясно +25.5 +17.8 62 +30 +42 душно 1017.5 967.7
14 25.08 В 2-3
{3}
30 км ясно +26.0 +16.3 55 +29 +38 душно 1017.0 967.3
15 25.08 В 2-3
{4}
35 км ясно +26.2 +15.9 53 +29 +35 жарко 1016.8 967.1
17 25.08 В 2-3
{3}
45 км ясно +25.0 +16.1 58 +28 +29 жарко 1017.2 967.3

 

Местоположение метеостанции Констанция (Германия): широта 47.68 долгота 9.18 высота над уровнем моря 443 м.

В архиве по умолчанию представлена погода в Констанции за последнюю неделю. Архивные данные за месяц целиком и за предыдущие месяцы, начиная с января 2011 года, Вы можете получить, выбрав интересующий диапазон дат из раскрывающегося списка и нажав кнопку "Ввод!".


*Определитесь, кто Вы:
робот инопланетянин человек

Внимание! Время в таблицах - всемирное. Для получения местного времени необходимо прибавить поправку, которая равна 1 ч.

Смотрите также архив погоды в соседних городах и на ближайших метеорологических станциях:

Погода в Гуттингене (Швейцария) (12 км)
Погода в Хайденхаусе (Швейцария) (12 км)
Погода в Бишофсцелле (Швейцария) (23 км)
Погода в Тениконе (Швейцария) (31 км)
Погода в Санкт-Галлене (Швейцария) (32 км)
Погода в Санкт-Галлен-Альтенрайне (Швейцария) (35 км)
Погода в Хёрнли (Швейцария) (39 км)
Погода в Шаффхаузене (Швейцария) (42 км)
Погода в Эбнат-Каппеле (Швейцария) (45 км)
Погода в Брегенце (Австрия) (47 км)

Пояснения к столбцам:

Ветер - указаны скорость ветра в м/с - средняя за 10 мин, порывы в срок и между сроками (в фигурных скобках) и направление, откуда дует ветер: С - северный, СВ - северо-восточный, В - восточный, ЮВ - юго-восточный, Ю - южный, ЮЗ - юго-западный, З - западный, СЗ - северо-западный.
Видимость - горизонтальная дальность видимости в метрах или километрах. При видимости от 1 до 10 км при отсутствии осадков обычно наблюдается дымка, при ухудшении видимости до 1 км и менее - туман. В сухую погоду видимость может ухудшаться дымом, пылью или мглою.
Явления - указаны атмосферные явления, наблюдавшиеся в срок или в последний час перед сроком; фигурными скобками обозначены явления, наблюдавшиеся между сроками (за 1-3 часа до срока); квадратными скобками обозначены град или гололедные отложения с указанием их диаметра в мм.
Облачность - указаны через наклонную черту общая и нижняя облачность в баллах и высота нижней границы облаков в метрах; квадратными скобками обозначены формы облаков: Ci - перистые, Cs - перисто-слоистые, Cc - перисто-кучевые, Ac - высококучевые, As - высокослоистые, Sc - слоисто-кучевые, Ns - слоисто-дождевые, Cu - кучевые, Cb - кучево-дождевые. Подробнее классификацию облаков см. в Атласе облаков (PDF).
T - Температура воздуха - температура, измеренная на высоте 2 м над землей.
Td - Температура точки росы - температура, при понижении до которой содержащийся в воздухе водяной пар достигнет насыщения.
f - Относительная влажность воздуха - влажноcть воздуха, измеренная на высоте 2 м над землей.
Te - Эффективная температура - температура, которую ощущает одетый по сезону человек в тени. Характеристика душности погоды. При расчете учитывается влияние влажности воздуха и скорости ветра на теплоощущения человека.
Tes - Эффективная температура на солнце - температура, которую ощущает человек, с поправкой на солнечный нагрев. Характеристика знойности погоды. Зависит от высоты солнца над горизонтом, облачности и скорости ветра. Ночью, в пасмурную погоду, а также при ветре 12 м/с и более поправка равна нулю.
P - Атмосферное давление - приведенное к уровню моря атмосферное давление.
Po - Атмосферное давление - измеренное на уровне метеостанции атмосферное давление.
Tmin - Минимальная температура - минимум температуры воздуха на высоте 2 м над землей.
Tmax - Максимальная температура - максимум температуры воздуха на высоте 2 м над землей.
R - Количество осадков - Количество выпавших осадков за период времени, мм. При наведении курсора мыши на число - период времени, за который выпало указанное количество осадков.
R24 - Количество осадков - Количество выпавших осадков за 24 часа, мм.
S - Снежный покров - Высота снежного покрова, см. При наведении курсора мыши на число - состояние снежного покрова и степень покрытия местности в баллах.